contact: severine.martini@mio.osupytheas.fr, dominique.lefevre@mio.osupytheas.fr
Project:EMSO Ligure-ouest http://www.emso-fr.org/EMSO-France
Sensor Optode, line 4330 Serial 272 
DOI : "https://doi.org/10.17882/97948" 
Title:EMSO Ligure Ouest : Data BathyDock capteur Optode - deploiement "2023-04-28"
Datetime,Profondeur,Latitude,Longitude,optode_type,serial,O2_concentration,O2_saturation,Temperature,Calibrated_Phase,Temp_Compensated_Phase,phase_blue_light,phase_red_light,Amplitude_blue_light,Amplitude_red_light,thermistor_bridge
time,m,degree_north,degree_east,1,1,umol.l-1,%,degree_C,degree,degree,degree,degree,mV,mV,mV
2023-10-20T13:15:08,2420,42.8014,5.9826,4330,272,186.559,57.147,13.317,36.030,36.610,41.193,4.582,295.4,543.3,291.0
2023-10-20T13:18:08,2420,42.8014,5.9826,4330,272,186.544,57.140,13.316,36.032,36.612,41.200,4.589,295.4,543.4,291.0
2023-10-20T13:21:08,2420,42.8014,5.9826,4330,272,186.378,57.089,13.315,36.043,36.623,41.208,4.585,295.4,543.4,291.0
2023-10-20T13:24:08,2420,42.8014,5.9826,4330,272,186.604,57.164,13.320,36.025,36.605,41.190,4.585,295.4,543.5,290.9
2023-10-20T13:27:08,2420,42.8014,5.9826,4330,272,186.361,57.102,13.330,36.037,36.617,41.198,4.581,295.4,543.5,290.6
2023-10-20T13:30:08,2420,42.8014,5.9826,4330,272,186.554,57.148,13.319,36.029,36.609,41.191,4.582,295.6,543.5,290.9
2023-10-20T13:33:07,2420,42.8014,5.9826,4330,272,186.787,57.212,13.314,36.017,36.597,41.181,4.584,295.5,543.5,291.1
2023-10-20T13:36:07,2420,42.8014,5.9826,4330,272,186.691,57.185,13.315,36.022,36.602,41.191,4.589,295.4,543.5,291.1
2023-10-20T13:39:07,2420,42.8014,5.9826,4330,272,186.499,57.131,13.319,36.033,36.613,41.195,4.581,295.4,543.6,290.9
2023-10-20T13:42:08,2420,42.8014,5.9826,4330,272,186.651,57.183,13.324,36.021,36.601,41.185,4.584,295.5,543.6,290.8
2023-10-20T13:45:08,2420,42.8014,5.9826,4330,272,186.350,57.088,13.321,36.041,36.621,41.209,4.588,295.5,543.5,290.9
2023-10-20T13:48:08,2420,42.8014,5.9826,4330,272,186.575,57.155,13.320,36.028,36.608,41.197,4.589,295.5,543.5,290.9
2023-10-20T13:51:07,2420,42.8014,5.9826,4330,272,186.729,57.207,13.324,36.015,36.596,41.184,4.589,295.6,543.5,290.8
2023-10-20T13:54:07,2420,42.8014,5.9826,4330,272,186.511,57.136,13.320,36.032,36.612,41.200,4.588,295.4,543.6,290.9
2023-10-20T13:57:07,2420,42.8014,5.9826,4330,272,186.394,57.092,13.314,36.042,36.622,41.203,4.581,295.5,543.6,291.1
2023-10-20T14:00:07,2420,42.8014,5.9826,4330,272,186.619,57.180,13.329,36.021,36.601,41.183,4.583,295.4,543.5,290.6
2023-10-20T14:03:07,2420,42.8014,5.9826,4330,272,186.327,57.076,13.317,36.045,36.625,41.210,4.586,295.5,543.5,291.0
2023-10-20T14:06:07,2420,42.8014,5.9826,4330,272,186.538,57.140,13.316,36.032,36.612,41.199,4.587,295.4,543.5,291.0
2023-10-20T14:09:07,2420,42.8014,5.9826,4330,272,186.880,57.246,13.318,36.009,36.589,41.177,4.588,295.4,543.6,291.0
2023-10-20T14:12:07,2420,42.8014,5.9826,4330,272,186.664,57.173,13.312,36.025,36.606,41.192,4.586,295.4,543.6,291.1
2023-10-20T14:15:07,2420,42.8014,5.9826,4330,272,186.436,57.099,13.309,36.042,36.622,41.203,4.581,295.4,543.6,291.2
2023-10-20T14:18:07,2420,42.8014,5.9826,4330,272,186.696,57.188,13.316,36.021,36.601,41.185,4.584,295.4,543.6,291.0
2023-10-20T14:21:08,2420,42.8014,5.9826,4330,272,186.309,57.081,13.326,36.042,36.622,41.212,4.590,295.4,543.5,290.7
2023-10-20T14:24:08,2420,42.8014,5.9826,4330,272,186.612,57.164,13.318,36.026,36.607,41.193,4.586,295.5,543.6,291.0
2023-10-20T14:27:08,2420,42.8014,5.9826,4330,272,186.290,57.070,13.321,36.045,36.625,41.210,4.585,295.4,543.6,290.9
2023-10-20T14:30:08,2420,42.8014,5.9826,4330,272,186.516,57.134,13.317,36.033,36.613,41.201,4.588,295.5,543.5,291.0
2023-10-20T14:33:07,2420,42.8014,5.9826,4330,272,186.613,57.172,13.324,36.023,36.603,41.194,4.591,295.4,543.5,290.8
2023-10-20T14:36:07,2420,42.8014,5.9826,4330,272,186.494,57.128,13.318,36.034,36.614,41.202,4.588,295.5,543.6,291.0
2023-10-20T14:39:07,2420,42.8014,5.9826,4330,272,186.552,57.153,13.324,36.027,36.607,41.194,4.587,295.4,543.6,290.8
2023-10-20T14:42:07,2420,42.8014,5.9826,4330,272,186.654,57.172,13.314,36.026,36.606,41.191,4.585,295.4,543.6,291.1
2023-10-20T14:45:07,2420,42.8014,5.9826,4330,272,186.681,57.178,13.312,36.024,36.604,41.188,4.584,295.4,543.6,291.2
2023-10-20T14:48:07,2420,42.8014,5.9826,4330,272,186.770,57.208,13.315,36.018,36.598,41.188,4.590,295.4,543.6,291.1
2023-10-20T14:51:07,2420,42.8014,5.9826,4330,272,186.698,57.183,13.312,36.023,36.603,41.190,4.587,295.5,543.6,291.2
2023-10-20T14:54:08,2420,42.8014,5.9826,4330,272,186.663,57.173,13.312,36.025,36.605,41.190,4.585,295.5,543.6,291.1
2023-10-20T14:57:08,2420,42.8014,5.9826,4330,272,186.804,57.222,13.317,36.015,36.595,41.185,4.590,295.5,543.6,291.0
2023-10-20T15:00:08,2420,42.8014,5.9826,4330,272,186.589,57.149,13.312,36.031,36.611,41.194,4.584,295.5,543.6,291.2
2023-10-20T15:03:07,2420,42.8014,5.9826,4330,272,186.724,57.198,13.317,36.019,36.599,41.190,4.590,295.4,543.6,291.0
2023-10-20T15:06:07,2420,42.8014,5.9826,4330,272,186.584,57.149,13.313,36.030,36.610,41.199,4.588,295.4,543.6,291.1
2023-10-20T15:09:07,2420,42.8014,5.9826,4330,272,186.651,57.170,13.313,36.026,36.606,41.195,4.589,295.4,543.6,291.1
2023-10-20T15:12:07,2420,42.8014,5.9826,4330,272,186.580,57.148,13.313,36.031,36.611,41.195,4.584,295.4,543.5,291.1
2023-10-20T15:15:08,2420,42.8014,5.9826,4330,272,186.367,57.083,13.313,36.045,36.625,41.212,4.588,295.4,543.5,291.1
2023-10-20T15:18:08,2420,42.8014,5.9826,4330,272,186.476,57.122,13.317,36.035,36.615,41.202,4.587,295.4,543.6,291.0
2023-10-20T15:21:08,2420,42.8014,5.9826,4330,272,186.678,57.174,13.310,36.025,36.606,41.194,4.588,295.4,543.7,291.2
2023-10-20T15:24:08,2420,42.8014,5.9826,4330,272,186.646,57.179,13.322,36.022,36.602,41.186,4.584,295.4,543.6,290.8
2023-10-20T15:27:08,2420,42.8014,5.9826,4330,272,186.568,57.155,13.321,36.027,36.607,41.197,4.590,295.4,543.7,290.9
2023-10-20T15:30:08,2420,42.8014,5.9826,4330,272,186.906,57.253,13.317,36.008,36.588,41.178,4.590,295.4,543.7,291.0
2023-10-20T15:33:07,2420,42.8014,5.9826,4330,272,186.473,57.116,13.313,36.038,36.618,41.203,4.585,295.4,543.6,291.1
2023-10-20T15:36:07,2420,42.8014,5.9826,4330,272,186.712,57.189,13.313,36.022,36.602,41.187,4.585,295.4,543.6,291.1
2023-10-20T15:39:07,2420,42.8014,5.9826,4330,272,186.831,57.233,13.319,36.011,36.591,41.186,4.595,295.4,543.5,290.9
2023-10-20T15:42:08,2420,42.8014,5.9826,4330,272,186.717,57.185,13.309,36.024,36.604,41.188,4.584,295.4,543.6,291.3
2023-10-20T15:45:08,2420,42.8014,5.9826,4330,272,186.639,57.160,13.308,36.029,36.609,41.194,4.585,295.4,543.6,291.3
2023-10-20T15:48:08,2420,42.8014,5.9826,4330,272,186.811,57.223,13.317,36.014,36.594,41.182,4.588,295.4,543.6,291.0
2023-10-20T15:51:08,2420,42.8014,5.9826,4330,272,186.452,57.114,13.317,36.038,36.618,41.200,4.582,295.4,543.6,291.0
2023-10-20T15:54:08,2420,42.8014,5.9826,4330,272,186.635,57.174,13.320,36.023,36.604,41.189,4.586,295.4,543.6,290.9
2023-10-20T15:57:07,2420,42.8014,5.9826,4330,272,186.708,57.191,13.316,36.020,36.600,41.193,4.593,295.4,543.6,291.0
2023-10-20T16:00:07,2420,42.8014,5.9826,4330,272,186.594,57.159,13.318,36.027,36.607,41.191,4.584,295.4,543.6,291.0
2023-10-20T16:03:07,2420,42.8014,5.9826,4330,272,186.698,57.179,13.309,36.025,36.605,41.196,4.591,295.5,543.6,291.3
2023-10-20T16:06:07,2420,42.8014,5.9826,4330,272,186.780,57.219,13.321,36.014,36.594,41.186,4.592,295.4,543.6,290.9
2023-10-20T16:09:07,2420,42.8014,5.9826,4330,272,186.575,57.142,13.309,36.033,36.613,41.204,4.591,295.4,543.6,291.2
2023-10-20T16:12:07,2420,42.8014,5.9826,4330,272,186.718,57.189,13.312,36.022,36.602,41.197,4.595,295.3,543.6,291.2
2023-10-20T16:15:07,2420,42.8014,5.9826,4330,272,186.566,57.141,13.311,36.032,36.612,41.198,4.586,295.3,543.6,291.2
2023-10-20T16:18:07,2420,42.8014,5.9826,4330,272,186.615,57.163,13.317,36.026,36.607,41.192,4.586,295.4,543.5,291.0
2023-10-20T16:21:08,2420,42.8014,5.9826,4330,272,186.764,57.211,13.318,36.016,36.596,41.185,4.588,295.4,543.5,291.0
2023-10-20T16:24:08,2420,42.8014,5.9826,4330,272,186.517,57.125,13.310,36.036,36.616,41.203,4.587,295.4,543.6,291.2
2023-10-20T16:27:08,2420,42.8014,5.9826,4330,272,186.556,57.138,13.311,36.033,36.613,41.208,4.595,295.4,543.6,291.2
2023-10-20T16:30:08,2420,42.8014,5.9826,4330,272,186.620,57.156,13.309,36.030,36.610,41.200,4.590,295.4,543.6,291.2
2023-10-20T16:33:07,2420,42.8014,5.9826,4330,272,186.755,57.203,13.314,36.018,36.599,41.184,4.586,295.4,543.6,291.1
2023-10-20T16:36:07,2420,42.8014,5.9826,4330,272,186.582,57.151,13.315,36.030,36.610,41.198,4.589,295.4,543.6,291.1
2023-10-20T16:39:07,2420,42.8014,5.9826,4330,272,186.843,57.229,13.313,36.013,36.593,41.183,4.590,295.5,543.6,291.1
2023-10-20T16:42:07,2420,42.8014,5.9826,4330,272,186.677,57.178,13.313,36.024,36.604,41.193,4.589,295.5,543.6,291.1
2023-10-20T16:45:07,2420,42.8014,5.9826,4330,272,186.627,57.169,13.318,36.025,36.605,41.195,4.590,295.5,543.6,291.0
2023-10-20T16:48:07,2420,42.8014,5.9826,4330,272,186.505,57.123,13.311,36.036,36.616,41.200,4.584,295.5,543.6,291.2
2023-10-20T16:51:07,2420,42.8014,5.9826,4330,272,186.693,57.179,13.310,36.025,36.605,41.192,4.588,295.4,543.7,291.2
2023-10-20T16:54:07,2420,42.8014,5.9826,4330,272,186.808,57.225,13.319,36.013,36.593,41.186,4.593,295.5,543.7,290.9
2023-10-20T16:57:08,2420,42.8014,5.9826,4330,272,186.631,57.162,13.312,36.028,36.608,41.198,4.591,295.4,543.7,291.2
2023-10-20T17:00:08,2420,42.8014,5.9826,4330,272,186.572,57.139,13.307,36.034,36.614,41.204,4.590,295.5,543.7,291.3
2023-10-20T17:03:07,2420,42.8014,5.9826,4330,272,186.659,57.168,13.309,36.027,36.607,41.197,4.590,295.4,543.6,291.2
2023-10-20T17:06:07,2420,42.8014,5.9826,4330,272,186.648,57.160,13.306,36.030,36.610,41.199,4.589,295.4,543.6,291.4
2023-10-20T17:09:07,2420,42.8014,5.9826,4330,272,186.775,57.201,13.308,36.020,36.601,41.190,4.589,295.3,543.6,291.3
2023-10-20T17:12:07,2420,42.8014,5.9826,4330,272,186.918,57.244,13.307,36.011,36.592,41.182,4.591,295.3,543.7,291.3
2023-10-20T17:15:07,2420,42.8014,5.9826,4330,272,186.496,57.120,13.311,36.037,36.617,41.203,4.586,295.4,543.6,291.2
2023-10-20T17:18:07,2420,42.8014,5.9826,4330,272,186.835,57.221,13.309,36.016,36.596,41.189,4.593,295.4,543.7,291.3
2023-10-20T17:21:07,2420,42.8014,5.9826,4330,272,186.744,57.197,13.312,36.020,36.600,41.187,4.586,295.5,543.7,291.2
2023-10-20T17:24:07,2420,42.8014,5.9826,4330,272,186.737,57.190,13.308,36.023,36.603,41.192,4.589,295.4,543.6,291.3
2023-10-20T17:27:08,2420,42.8014,5.9826,4330,272,186.518,57.124,13.309,36.036,36.617,41.204,4.588,295.4,543.7,291.3
2023-10-20T17:30:08,2420,42.8014,5.9826,4330,272,186.313,57.067,13.314,36.048,36.628,41.217,4.589,295.5,543.6,291.1
2023-10-20T17:33:07,2420,42.8014,5.9826,4330,272,186.783,57.205,13.309,36.019,36.600,41.191,4.591,295.5,543.7,291.3
2023-10-20T17:36:07,2420,42.8014,5.9826,4330,272,186.573,57.139,13.308,36.033,36.613,41.203,4.589,295.4,543.7,291.3
2023-10-20T17:39:07,2420,42.8014,5.9826,4330,272,186.715,57.183,13.308,36.024,36.604,41.194,4.590,295.3,543.7,291.3
2023-10-20T17:42:07,2420,42.8014,5.9826,4330,272,186.575,57.144,13.311,36.032,36.612,41.199,4.587,295.4,543.7,291.2
2023-10-20T17:45:07,2420,42.8014,5.9826,4330,272,186.851,57.230,13.312,36.013,36.594,41.180,4.587,295.3,543.6,291.2
2023-10-20T17:48:07,2420,42.8014,5.9826,4330,272,186.742,57.190,13.307,36.023,36.603,41.192,4.589,295.4,543.6,291.3
2023-10-20T17:51:08,2420,42.8014,5.9826,4330,272,186.916,57.245,13.308,36.011,36.591,41.187,4.596,295.4,543.6,291.3
2023-10-20T17:54:08,2420,42.8014,5.9826,4330,272,186.632,57.164,13.313,36.027,36.607,41.194,4.587,295.3,543.7,291.1
2023-10-20T17:57:08,2420,42.8014,5.9826,4330,272,186.732,57.189,13.308,36.023,36.603,41.195,4.592,295.5,543.7,291.3
2023-10-20T18:00:08,2420,42.8014,5.9826,4330,272,186.734,57.186,13.306,36.024,36.604,41.194,4.590,295.4,543.8,291.4
2023-10-20T18:03:07,2420,42.8014,5.9826,4330,272,186.506,57.125,13.313,36.036,36.616,41.207,4.591,295.3,543.6,291.1
2023-10-20T18:06:07,2420,42.8014,5.9826,4330,272,186.830,57.216,13.306,36.018,36.598,41.191,4.592,295.4,543.7,291.4
2023-10-20T18:09:07,2420,42.8014,5.9826,4330,272,186.651,57.164,13.308,36.028,36.608,41.196,4.589,295.4,543.6,291.3
2023-10-20T18:12:07,2420,42.8014,5.9826,4330,272,186.636,57.176,13.322,36.023,36.603,41.194,4.591,295.3,543.6,290.8
2023-10-20T18:15:07,2420,42.8014,5.9826,4330,272,186.770,57.199,13.307,36.020,36.601,41.187,4.586,295.4,543.6,291.3
2023-10-20T18:18:08,2420,42.8014,5.9826,4330,272,186.689,57.175,13.308,36.026,36.606,41.193,4.586,295.4,543.7,291.3
2023-10-20T18:21:08,2420,42.8014,5.9826,4330,272,186.651,57.169,13.312,36.026,36.606,41.194,4.588,295.3,543.7,291.2
2023-10-20T18:24:08,2420,42.8014,5.9826,4330,272,186.614,57.152,13.308,36.030,36.610,41.194,4.583,295.4,543.7,291.3
2023-10-20T18:27:08,2420,42.8014,5.9826,4330,272,186.502,57.126,13.315,36.035,36.615,41.210,4.595,295.4,543.7,291.1
2023-10-20T18:30:07,2420,42.8014,5.9826,4330,272,186.856,57.231,13.312,36.013,36.593,41.182,4.588,295.3,543.7,291.2
2023-10-20T18:33:07,2420,42.8014,5.9826,4330,272,186.560,57.138,13.310,36.033,36.613,41.200,4.587,295.3,543.7,291.2
2023-10-20T18:36:07,2420,42.8014,5.9826,4330,272,186.807,57.216,13.312,36.016,36.596,41.189,4.592,295.3,543.7,291.2
2023-10-20T18:39:07,2420,42.8014,5.9826,4330,272,186.738,57.188,13.307,36.024,36.604,41.197,4.593,295.3,543.7,291.3
2023-10-20T18:42:08,2420,42.8014,5.9826,4330,272,186.631,57.167,13.316,36.026,36.607,41.195,4.588,295.4,543.7,291.0
2023-10-20T18:45:08,2420,42.8014,5.9826,4330,272,186.740,57.191,13.308,36.022,36.603,41.190,4.587,295.4,543.6,291.3
2023-10-20T18:48:08,2420,42.8014,5.9826,4330,272,186.883,57.233,13.307,36.014,36.594,41.184,4.590,295.4,543.6,291.3
2023-10-20T18:51:08,2420,42.8014,5.9826,4330,272,186.698,57.187,13.315,36.022,36.602,41.195,4.593,295.3,543.7,291.1
2023-10-20T18:54:07,2420,42.8014,5.9826,4330,272,186.637,57.163,13.311,36.028,36.608,41.193,4.585,295.3,543.7,291.2
2023-10-20T18:57:07,2420,42.8014,5.9826,4330,272,186.790,57.211,13.312,36.017,36.597,41.188,4.591,295.4,543.6,291.2
2023-10-20T19:00:07,2420,42.8014,5.9826,4330,272,186.847,57.224,13.308,36.016,36.596,41.184,4.588,295.4,543.6,291.3
2023-10-20T19:03:07,2420,42.8014,5.9826,4330,272,186.635,57.160,13.309,36.029,36.609,41.198,4.589,295.4,543.7,291.3
2023-10-20T19:06:07,2420,42.8014,5.9826,4330,272,186.668,57.168,13.307,36.027,36.608,41.200,4.593,295.3,543.6,291.3
2023-10-20T19:09:07,2420,42.8014,5.9826,4330,272,186.896,57.238,13.307,36.013,36.593,41.184,4.591,295.4,543.7,291.3
2023-10-20T19:12:07,2420,42.8014,5.9826,4330,272,186.700,57.176,13.306,36.026,36.606,41.193,4.587,295.3,543.7,291.3
2023-10-20T19:15:08,2420,42.8014,5.9826,4330,272,186.745,57.195,13.310,36.021,36.602,41.189,4.587,295.4,543.7,291.2
2023-10-20T19:18:09,2420,42.8014,5.9826,4330,272,186.864,57.230,13.309,36.014,36.595,41.183,4.589,295.4,543.6,291.3
2023-10-20T19:21:08,2420,42.8014,5.9826,4330,272,186.932,57.251,13.309,36.010,36.590,41.180,4.590,295.4,543.7,291.3
2023-10-20T19:24:07,2420,42.8014,5.9826,4330,272,186.734,57.190,13.309,36.023,36.603,41.191,4.589,295.4,543.6,291.3
2023-10-20T19:27:07,2420,42.8014,5.9826,4330,272,186.568,57.140,13.310,36.033,36.613,41.195,4.582,295.4,543.6,291.2
2023-10-20T19:30:07,2420,42.8014,5.9826,4330,272,186.644,57.162,13.308,36.029,36.609,41.195,4.587,295.3,543.7,291.3
2023-10-20T19:33:07,2420,42.8014,5.9826,4330,272,186.506,57.120,13.309,36.038,36.618,41.204,4.587,295.4,543.7,291.3
2023-10-20T19:36:07,2420,42.8014,5.9826,4330,272,186.809,57.219,13.314,36.016,36.596,41.185,4.589,295.4,543.7,291.1
2023-10-20T19:39:07,2420,42.8014,5.9826,4330,272,186.876,57.227,13.304,36.016,36.596,41.181,4.585,295.4,543.7,291.4
2023-10-20T19:42:07,2420,42.8014,5.9826,4330,272,186.861,57.224,13.305,36.016,36.596,41.184,4.588,295.4,543.7,291.4
2023-10-20T19:45:07,2420,42.8014,5.9826,4330,272,186.882,57.242,13.314,36.010,36.590,41.179,4.588,295.3,543.7,291.1
2023-10-20T19:48:07,2420,42.8014,5.9826,4330,272,186.668,57.167,13.306,36.028,36.608,41.199,4.591,295.3,543.7,291.3
2023-10-20T19:51:07,2420,42.8014,5.9826,4330,272,186.796,57.204,13.305,36.021,36.601,41.190,4.589,295.3,543.7,291.4
2023-10-20T19:54:07,2420,42.8014,5.9826,4330,272,186.748,57.191,13.306,36.023,36.603,41.195,4.592,295.4,543.7,291.4
2023-10-20T19:57:08,2420,42.8014,5.9826,4330,272,186.746,57.189,13.305,36.023,36.604,41.188,4.584,295.4,543.7,291.4
2023-10-20T20:00:08,2420,42.8014,5.9826,4330,272,186.696,57.173,13.305,36.027,36.607,41.197,4.590,295.4,543.7,291.4
2023-10-20T20:03:07,2420,42.8014,5.9826,4330,272,186.733,57.185,13.305,36.024,36.604,41.196,4.592,295.4,543.6,291.4
2023-10-20T20:06:08,2420,42.8014,5.9826,4330,272,186.773,57.196,13.304,36.023,36.603,41.194,4.591,295.4,543.7,291.4
2023-10-20T20:09:08,2420,42.8014,5.9826,4330,272,186.815,57.210,13.305,36.019,36.599,41.190,4.591,295.3,543.7,291.4
2023-10-20T20:12:08,2420,42.8014,5.9826,4330,272,186.916,57.239,13.304,36.013,36.593,41.185,4.592,295.3,543.6,291.4
2023-10-20T20:15:08,2420,42.8014,5.9826,4330,272,186.802,57.204,13.303,36.021,36.601,41.192,4.591,295.4,543.7,291.4
2023-10-20T20:18:07,2420,42.8014,5.9826,4330,272,186.830,57.213,13.304,36.019,36.599,41.191,4.592,295.3,543.7,291.4
2023-10-20T20:21:07,2420,42.8014,5.9826,4330,272,186.927,57.247,13.307,36.011,36.591,41.179,4.588,295.2,543.7,291.3
2023-10-20T20:24:07,2420,42.8014,5.9826,4330,272,186.918,57.242,13.305,36.012,36.592,41.180,4.588,295.3,543.7,291.4
2023-10-20T20:27:07,2420,42.8014,5.9826,4330,272,186.707,57.177,13.305,36.027,36.607,41.198,4.591,295.4,543.7,291.4
2023-10-20T20:30:08,2420,42.8014,5.9826,4330,272,186.811,57.209,13.306,36.019,36.599,41.187,4.588,295.3,543.7,291.4
2023-10-20T20:33:07,2420,42.8014,5.9826,4330,272,186.784,57.201,13.305,36.020,36.601,41.187,4.586,295.4,543.7,291.4
2023-10-20T20:36:07,2420,42.8014,5.9826,4330,272,186.835,57.218,13.306,36.017,36.598,41.186,4.588,295.3,543.7,291.3
2023-10-20T20:39:07,2420,42.8014,5.9826,4330,272,186.566,57.134,13.305,36.035,36.615,41.202,4.587,295.4,543.7,291.4
2023-10-20T20:42:07,2420,42.8014,5.9826,4330,272,186.717,57.182,13.307,36.024,36.604,41.188,4.584,295.3,543.7,291.3
2023-10-20T20:45:07,2420,42.8014,5.9826,4330,272,186.838,57.220,13.307,36.017,36.597,41.196,4.599,295.3,543.7,291.3
2023-10-20T20:48:08,2420,42.8014,5.9826,4330,272,186.900,57.241,13.309,36.012,36.592,41.177,4.585,295.4,543.7,291.3
2023-10-20T20:51:08,2420,42.8014,5.9826,4330,272,186.667,57.163,13.304,36.029,36.609,41.198,4.589,295.4,543.6,291.4
2023-10-20T20:54:08,2420,42.8014,5.9826,4330,272,186.838,57.218,13.306,36.017,36.598,41.186,4.588,295.3,543.7,291.4
2023-10-20T20:57:08,2420,42.8014,5.9826,4330,272,186.878,57.231,13.307,36.014,36.594,41.185,4.590,295.3,543.7,291.3
2023-10-20T21:00:08,2420,42.8014,5.9826,4330,272,186.782,57.201,13.306,36.021,36.601,41.191,4.590,295.4,543.7,291.4
2023-10-20T21:03:07,2420,42.8014,5.9826,4330,272,186.751,57.195,13.308,36.022,36.602,41.193,4.591,295.3,543.7,291.3
2023-10-20T21:06:07,2420,42.8014,5.9826,4330,272,186.784,57.204,13.308,36.020,36.600,41.187,4.587,295.3,543.7,291.3
2023-10-20T21:09:07,2420,42.8014,5.9826,4330,272,186.736,57.185,13.305,36.025,36.605,41.192,4.587,295.3,543.7,291.4
2023-10-20T21:12:07,2420,42.8014,5.9826,4330,272,186.872,57.228,13.305,36.015,36.596,41.188,4.592,295.3,543.7,291.4
2023-10-20T21:15:07,2420,42.8014,5.9826,4330,272,186.717,57.179,13.305,36.026,36.606,41.198,4.591,295.3,543.7,291.4
2023-10-20T21:18:07,2420,42.8014,5.9826,4330,272,186.828,57.216,13.307,36.017,36.597,41.191,4.594,295.3,543.7,291.3
2023-10-20T21:21:08,2420,42.8014,5.9826,4330,272,186.790,57.204,13.306,36.021,36.601,41.191,4.590,295.3,543.7,291.4
2023-10-20T21:24:08,2420,42.8014,5.9826,4330,272,186.860,57.228,13.308,36.015,36.595,41.186,4.592,295.4,543.7,291.3
2023-10-20T21:27:08,2420,42.8014,5.9826,4330,272,186.759,57.195,13.307,36.022,36.602,41.196,4.594,295.2,543.7,291.3
2023-10-20T21:30:08,2420,42.8014,5.9826,4330,272,186.769,57.200,13.308,36.021,36.601,41.190,4.589,295.3,543.7,291.3
2023-10-20T21:33:07,2420,42.8014,5.9826,4330,272,186.897,57.239,13.308,36.012,36.592,41.179,4.587,295.3,543.7,291.3
2023-10-20T21:36:07,2420,42.8014,5.9826,4330,272,186.868,57.229,13.307,36.014,36.595,41.185,4.590,295.4,543.7,291.3
2023-10-20T21:39:07,2420,42.8014,5.9826,4330,272,186.718,57.184,13.308,36.024,36.604,41.189,4.585,295.3,543.7,291.3
2023-10-20T21:42:07,2420,42.8014,5.9826,4330,272,186.688,57.173,13.307,36.026,36.606,41.197,4.591,295.3,543.6,291.3
2023-10-20T21:45:07,2420,42.8014,5.9826,4330,272,186.739,57.193,13.310,36.022,36.602,41.190,4.588,295.3,543.7,291.2
2023-10-20T21:48:08,2420,42.8014,5.9826,4330,272,186.749,57.192,13.307,36.023,36.603,41.195,4.593,295.3,543.6,291.3
2023-10-20T21:51:08,2420,42.8014,5.9826,4330,272,186.711,57.181,13.307,36.024,36.604,41.196,4.591,295.3,543.6,291.3
2023-10-20T21:54:08,2420,42.8014,5.9826,4330,272,186.817,57.216,13.309,36.017,36.598,41.189,4.592,295.3,543.7,291.2
2023-10-20T21:57:08,2420,42.8014,5.9826,4330,272,186.759,57.198,13.309,36.021,36.601,41.193,4.593,295.3,543.7,291.2
2023-10-20T22:00:08,2420,42.8014,5.9826,4330,272,186.791,57.203,13.306,36.020,36.600,41.188,4.588,295.3,543.7,291.4
2023-10-20T22:03:07,2420,42.8014,5.9826,4330,272,186.840,57.223,13.309,36.016,36.596,41.184,4.588,295.4,543.7,291.3
2023-10-20T22:06:07,2420,42.8014,5.9826,4330,272,186.829,57.215,13.306,36.017,36.598,41.193,4.595,295.3,543.7,291.4
2023-10-20T22:09:07,2420,42.8014,5.9826,4330,272,186.980,57.267,13.310,36.006,36.586,41.181,4.595,295.4,543.7,291.2
2023-10-20T22:12:07,2420,42.8014,5.9826,4330,272,186.662,57.166,13.307,36.028,36.609,41.204,4.596,295.3,543.7,291.3
2023-10-20T22:15:07,2420,42.8014,5.9826,4330,272,186.840,57.221,13.308,36.016,36.597,41.185,4.588,295.3,543.7,291.3
2023-10-20T22:18:07,2420,42.8014,5.9826,4330,272,186.629,57.159,13.310,36.029,36.609,41.199,4.590,295.4,543.6,291.2
2023-10-20T22:21:08,2420,42.8014,5.9826,4330,272,186.757,57.198,13.309,36.020,36.600,41.189,4.588,295.3,543.6,291.2
2023-10-20T22:24:08,2420,42.8014,5.9826,4330,272,186.805,57.209,13.306,36.019,36.600,41.184,4.585,295.3,543.7,291.3
2023-10-20T22:27:08,2420,42.8014,5.9826,4330,272,186.548,57.137,13.312,36.034,36.614,41.206,4.592,295.5,543.7,291.2
2023-10-20T22:30:08,2420,42.8014,5.9826,4330,272,186.393,57.087,13.310,36.044,36.624,41.212,4.588,295.4,543.7,291.2
2023-10-20T22:33:07,2420,42.8014,5.9826,4330,272,186.665,57.172,13.311,36.026,36.606,41.195,4.589,295.4,543.7,291.2
2023-10-20T22:36:07,2420,42.8014,5.9826,4330,272,186.550,57.137,13.311,36.033,36.614,41.197,4.584,295.4,543.7,291.2
2023-10-20T22:39:07,2420,42.8014,5.9826,4330,272,186.834,57.224,13.311,36.015,36.595,41.190,4.595,295.3,543.7,291.2
2023-10-20T22:42:07,2420,42.8014,5.9826,4330,272,186.881,57.233,13.307,36.013,36.594,41.188,4.594,295.2,543.7,291.3
2023-10-20T22:45:07,2420,42.8014,5.9826,4330,272,186.746,57.194,13.309,36.022,36.602,41.192,4.590,295.3,543.7,291.2
2023-10-20T22:48:07,2420,42.8014,5.9826,4330,272,186.725,57.185,13.307,36.024,36.604,41.190,4.587,295.3,543.6,291.3
2023-10-20T22:51:07,2420,42.8014,5.9826,4330,272,186.721,57.184,13.308,36.024,36.604,41.187,4.583,295.3,543.6,291.3
2023-10-20T22:54:08,2420,42.8014,5.9826,4330,272,186.777,57.202,13.308,36.020,36.600,41.191,4.591,295.4,543.7,291.3
2023-10-20T22:57:08,2420,42.8014,5.9826,4330,272,186.979,57.264,13.308,36.007,36.587,41.178,4.591,295.3,543.6,291.3
2023-10-20T23:00:08,2420,42.8014,5.9826,4330,272,186.883,57.238,13.311,36.012,36.592,41.187,4.595,295.3,543.7,291.2
2023-10-20T23:03:07,2420,42.8014,5.9826,4330,272,186.691,57.175,13.308,36.026,36.606,41.197,4.591,295.3,543.7,291.3
2023-10-20T23:06:07,2420,42.8014,5.9826,4330,272,186.795,57.209,13.309,36.019,36.599,41.192,4.594,295.3,543.7,291.3
2023-10-20T23:09:07,2420,42.8014,5.9826,4330,272,186.862,57.228,13.308,36.014,36.594,41.185,4.591,295.4,543.7,291.3
2023-10-20T23:12:07,2420,42.8014,5.9826,4330,272,186.689,57.179,13.311,36.024,36.604,41.193,4.589,295.4,543.6,291.2
2023-10-20T23:15:07,2420,42.8014,5.9826,4330,272,186.817,57.217,13.310,36.017,36.597,41.187,4.590,295.4,543.7,291.2